Regional Weather Roundup
Issued by NWS Bismarck, ND

Home | Current Version | Previous Version | Text Only | Print | Product List | Glossary On
Versions: 1 2 3 4 5 6 7 8 9 10 11 12 13 14 15 16 17 18 19 20 21 22 23 24 25 26 27 28 29 30 31 32 33 34 35 36 37 38 39 40 41 42 43 44 45 46 47 48 49 50
000
ASUS43 KBIS 221759
RWRBIS

NWR BROADCAST TEXT
NATIONAL WEATHER SERVICE BISMARCK ND
100 PM CDT TUE APR 22 2014

NOTE: "FAIR" INDICATES FEW OR NO CLOUDS BELOW 12,000 FEET WITH NO
SIGNIFICANT WEATHER AND/OR OBSTRUCTIONS TO VISIBILITY.


CITY           SKY/WX    TMP DP  RH WIND       PRES   REMARKS
WILLISTON      PTSUNNY   66  28  24 SE22G31   29.84F
MINOT          FAIR      63  30  28 E14       29.94F
MINOT AFB      NOT AVBL
BISMARCK       MOSUNNY   69  29  22 SE15G24   29.94F
DICKINSON      NOT AVBL
GARRISON         N/A     65  28  24 SE17G23   29.92F
HETTINGER ARPT MOSUNNY   64  30  27 SE24G35   29.83F
JAMESTOWN      NOT AVBL
CARRINGTON     FAIR      59  32  36 S12G21    30.02F
CROSBY         FAIR      64  30  27 SE24G32   29.87F
HARVEY         FAIR      61  30  31 SE13G22   29.98F
LINTON         FAIR      66  30  26 SE17G26   29.94F
OAKES          FAIR      59  32  36 SE10G17   30.04F
RUGBY          FAIR      57  32  38 E16G22    29.98F
$$

CITY           SKY/WX    TMP DP  RH WIND       PRES   REMARKS
GRAND FORKS    FAIR      56  36  47 VRB7      30.08F
GRAND FORKS AF NOT AVBL
DEVILS LAKE    FAIR      57  34  41 SE12      30.03F
FARGO          FAIR      59  33  37 S9        30.08F
GRAFTON        FAIR      54  37  54 SE8       30.09F
GWINNER        CLEAR     61  32  33 SE8       30.07F
$$

CITY           SKY/WX    TMP DP  RH WIND       PRES   REMARKS
ABERDEEN       SUNNY     62  29  28 SE13      30.03F
MOBRIDGE       PTSUNNY   64  29  26 SE24G31   29.90F
RAPID CITY     PTSUNNY   68  39  34 SE14      29.76F
GLASGOW        MOSUNNY   66  33  29 SE23G29   29.71F
SIDNEY         PTSUNNY   66  30  26 SE20      29.81F
WOLF POINT     PTSUNNY   68  30  24 E20       29.75F
MILES CITY     LGT RAIN  69  37  30 SE15      29.70F
BAKER          SUNNY     63  34  33 SE24G32   29.79F
$$

CITY           SKY/WX    TMP DP  RH WIND       PRES   REMARKS
BILLINGS       CLOUDY    57  35  43 CALM      29.68F
GREAT FALLS    PTSUNNY   67  33  28 S13G20    29.58F
$$




USA.gov is the U.S. government's official web portal to all federal, state and local government web resources and services.